Regional Weather Roundup
Issued by NWS

Home | Current Version | Previous Version | Text Only | Print | Product List | Glossary Off
Versions: 1 2 3 4 5 6 7 8 9 10 11 12 13 14 15 16 17 18 19 20 21 22 23 24 25 26 27 28 29 30 31 32 33 34 35 36 37 38 39 40 41 42 43 44 45 46 47 48 49 50

000
ASUS43 KLMK 281810
RWRKY
NATIONAL WEATHER SERVICE LOUISVILLE KY
100 PM EST FRI NOV 28 2014

NOTE "FAIR" INDICATES FEW OR NO CLOUDS BELOW 12,000 FEET
WITH NO SIGNIFICANT WEATHER AND/OR OBSTRUCTIONS TO VISIBILITY.

KYZ001>023-026-027-061>063-070>075-281900-
WESTERN AND SOUTH CENTRAL KENTUCKY

CITY           SKY/WX    TMP DP  RH WIND       PRES   REMARKS
PADUCAH        SUNNY     43  29  57 S10G18    30.25F
HENDERSON      SUNNY     39  27  60 S12       30.27F WCI  32
OWENSBORO      SUNNY     38  27  65 S14       30.30F WCI  30
HOPKINSVILLE   SUNNY     42  25  51 S8        30.29F
BOWLING GREEN  SUNNY     40  21  46 S8        30.33F WCI  34
GLASGOW        SUNNY     38  23  53 S6        30.33F WCI  34
$$

KYZ024-025-028>034-038-045-046-053-281900-
NORTH CENTRAL KENTUCKY

CITY           SKY/WX    TMP DP  RH WIND       PRES   REMARKS
LOUISVILLE/SDF PTSUNNY   36  21  54 S9        30.31F WCI  29
LOUISVILLE/LOU CLOUDY    34  21  59 S12       30.32F WCI  25
FORT KNOX      MOSUNNY   35  24  63 SE13      30.29F WCI  26
$$

KYZ035>037-039>044-047>052-055>060-089>105-281900-
NORTHEAST KENTUCKY

CITY           SKY/WX    TMP DP  RH WIND       PRES   REMARKS
LEXINGTON      MOSUNNY   31  17  56 S12       30.32F WCI  22
COVINGTON      CLOUDY    33  16  49 S10       30.29F WCI  25
FRANKFORT      MOSUNNY   32  18  56 S8        30.31F WCI  25
$$

KYZ054-064>069-076>088-106>120-281900-
SOUTHEAST KENTUCKY

CITY           SKY/WX    TMP DP  RH WIND       PRES   REMARKS
JACKSON        SUNNY     34  17  50 VRB3      30.32F
LONDON         CLOUDY    33  17  51 S6        30.33F WCI  28
SOMERSET       MOSUNNY   32  19  59 CALM      30.35F
MIDDLESBORO    NOT AVBL
MONTICELLO     CLEAR     38  19  46 CALM      30.37F
$$




USA.gov is the U.S. government's official web portal to all federal, state and local government web resources and services.